TimeMST,TemperatureF,Dew PointF,Humidity,Sea Level PressureIn,VisibilityMPH,Wind Direction,Wind SpeedMPH,Gust SpeedMPH,PrecipitationIn,Events,Conditions,WindDirDegrees,DateUTC
12:53 AM,-17.0,-22.0,78,30.55,10.0,ESE,3.5,-,N/A,,Mostly Cloudy,110,2013-12-07 07:53:00
1:53 AM,-18.0,-25.1,70,30.54,10.0,Calm,Calm,-,N/A,,Clear,0,2013-12-07 08:53:00
2:53 AM,-20.0,-26.0,74,30.57,10.0,Calm,Calm,-,N/A,,Clear,0,2013-12-07 09:53:00
3:53 AM,-20.0,-26.0,74,30.55,10.0,Calm,Calm,-,N/A,,Clear,0,2013-12-07 10:53:00
4:53 AM,-20.9,-27.0,73,30.53,10.0,WSW,3.5,-,N/A,,Clear,250,2013-12-07 11:53:00
5:53 AM,-20.9,-27.0,73,30.53,10.0,Calm,Calm,-,N/A,,Clear,0,2013-12-07 12:53:00
6:53 AM,-18.9,-25.1,74,30.51,10.0,Calm,Calm,-,N/A,,Clear,0,2013-12-07 13:53:00
7:53 AM,-18.9,-25.1,74,30.50,10.0,Calm,Calm,-,N/A,,Clear,0,2013-12-07 14:53:00
8:53 AM,-17.0,-20.0,86,30.48,10.0,Calm,Calm,-,N/A,,Clear,0,2013-12-07 15:53:00
9:53 AM,-17.0,-20.9,82,30.49,10.0,SSE,3.5,-,N/A,,Clear,160,2013-12-07 16:53:00
10:53 AM,-15.0,-18.9,82,30.45,10.0,Calm,Calm,-,N/A,,Scattered Clouds,0,2013-12-07 17:53:00
11:53 AM,-13.0,-18.0,78,30.41,10.0,SE,5.8,-,N/A,,Partly Cloudy,140,2013-12-07 18:53:00
12:53 PM,-11.0,-17.0,75,30.35,10.0,Calm,Calm,-,N/A,,Clear,0,2013-12-07 19:53:00
1:53 PM,-11.0,-17.0,75,30.31,10.0,SE,6.9,-,N/A,,Clear,130,2013-12-07 20:53:00
2:53 PM,-11.0,-17.0,75,30.30,10.0,ESE,5.8,-,N/A,,Partly Cloudy,120,2013-12-07 21:53:00
3:53 PM,-11.0,-17.0,75,30.29,10.0,ESE,3.5,-,N/A,,Clear,110,2013-12-07 22:53:00
4:10 PM,-11.0,-17.0,75,29.88,8.0,ESE,3.5,-,N/A,,Mostly Cloudy,120,2013-12-07 23:10:00
4:36 PM,-11.9,-18.0,74,29.88,10.0,ESE,4.6,-,N/A,,Scattered Clouds,110,2013-12-07 23:36:00
4:53 PM,-11.9,-18.0,74,30.30,10.0,Calm,Calm,-,N/A,,Clear,0,2013-12-07 23:53:00
5:08 PM,-11.9,-18.0,74,29.88,10.0,East,3.5,-,N/A,,Mostly Cloudy,80,2013-12-08 00:08:00
5:31 PM,-11.9,-18.0,74,29.87,10.0,Calm,Calm,-,N/A,,Scattered Clouds,0,2013-12-08 00:31:00
5:53 PM,-11.9,-18.0,74,30.27,10.0,Calm,Calm,-,N/A,,Partly Cloudy,0,2013-12-08 00:53:00
6:12 PM,-13.0,-18.0,78,29.86,9.0,Calm,Calm,-,N/A,,Mostly Cloudy,0,2013-12-08 01:12:00
6:53 PM,-13.0,-18.0,78,30.27,8.0,Calm,Calm,-,N/A,,Mostly Cloudy,0,2013-12-08 01:53:00
7:05 PM,-13.0,-18.0,78,29.85,10.0,Calm,Calm,-,N/A,,Scattered Clouds,0,2013-12-08 02:05:00
7:53 PM,-13.0,-18.0,78,30.26,7.0,Calm,Calm,-,N/A,,Partly Cloudy,0,2013-12-08 02:53:00
8:05 PM,-13.0,-18.0,78,29.85,6.0,Calm,Calm,-,N/A,,Haze,0,2013-12-08 03:05:00
8:53 PM,-11.9,-18.0,74,30.23,10.0,NW,3.5,-,N/A,,Partly Cloudy,310,2013-12-08 03:53:00
9:53 PM,-13.0,-18.0,78,30.23,10.0,Calm,Calm,-,N/A,,Partly Cloudy,0,2013-12-08 04:53:00
10:53 PM,-13.0,-20.0,71,30.20,10.0,NNW,3.5,-,N/A,,Clear,340,2013-12-08 05:53:00
11:53 PM,-13.0,-18.0,78,30.18,10.0,NW,3.5,-,N/A,,Mostly Cloudy,320,2013-12-08 06:53:00